Fort George G Meade, MD

2:11 AM EST on January 20, 2017 (GMT -0500)
Tipton

Weather History for KFME - December, 2012

Change the Weather History Date:

Wednesday, December 12, 2012

  Actual Average (KBWI) Record (KBWI)
Temperature  
Mean Temperature 38 °F -  
Max Temperature 44 °F 47 °F 71 °F (1979)
Min Temperature 32 °F 30 °F 10 °F (1962)
Degree Days  
Heating Degree Days 27    
Moisture  
Dew Point 29 °F    
Average Humidity 74    
Maximum Humidity 100    
Minimum Humidity 49    
Precipitation  
Precipitation 0.00 in - - ()
Sea Level Pressure  
Sea Level Pressure 30.38 in    
Wind  
Wind Speed 1 mph (North)    
Max Wind Speed 7 mph    
Max Gust Speed -    
Visibility 10 miles    
Events      
Averages and records for this station are not official NWS values.
T = Trace of Precipitation, MM = Missing Value Source: NWS Daily Summary

Daily Weather History Graph

Daily Weather History Graph

Search for Another Location

Airport or City:

Trip Planner

Search our weather history database for the weather conditions in past years. The results will help you decide how hot, cold, wet, or windy it might be!

Date:

Astronomy

Dec. 12, 2012 Rise Set
Actual Time 7:17 AM EST 4:44 PM EST
Civil Twilight 6:47 AM EST 5:14 PM EST
Nautical Twilight 6:13 AM EST 5:48 PM EST
Astronomical Twilight 5:41 AM EST 6:20 PM EST
Moon 6:19 AM EST (12/12) 4:19 PM EST (12/12)
Length of Visible Light 10h 27m
Length of Day
9h 27m
Waning Crescent, 1% of the Moon is Illuminated
Dec 12
Waning Crescent
Dec 13
New
Dec 20
First Quarter
Dec 28
Full
Jan 4
Last Quarter

Hourly Weather History & Observations

Time (EST) Temp. Windchill Dew Point Humidity Pressure Visibility Wind Dir Wind Speed Gust Speed Precip Events Conditions
12:00 AM 33.8 °F - 30.2 °F 87% 30.25 in 10.0 mi Calm Calm - N/A   Scattered Clouds
12:21 AM 33.8 °F - 30.2 °F 87% 30.25 in 10.0 mi Calm Calm - N/A   Scattered Clouds
12:42 AM 33.8 °F - 30.2 °F 87% 30.25 in 10.0 mi Calm Calm - N/A   Scattered Clouds
1:03 AM 33.8 °F - 30.2 °F 87% 30.25 in 10.0 mi Calm Calm - N/A   Clear
1:24 AM 32.0 °F - 32.0 °F 100% 30.26 in 10.0 mi Calm Calm - N/A   Clear
1:45 AM 32.0 °F - 30.2 °F 93% 30.27 in 10.0 mi Calm Calm - N/A   Clear
2:09 AM 32.0 °F - 30.2 °F 93% 30.27 in 10.0 mi Calm Calm - N/A   Clear
2:30 AM 32.0 °F - 30.2 °F 93% 30.28 in 10.0 mi Calm Calm - N/A   Clear
2:51 AM 32.0 °F - 30.2 °F 93% 30.30 in 10.0 mi Calm Calm - N/A   Clear
3:33 AM 32.0 °F - 30.2 °F 93% 30.32 in 10.0 mi Calm Calm - N/A   Clear
3:54 AM 32.0 °F - 30.2 °F 93% 30.32 in 10.0 mi Calm Calm - N/A   Mostly Cloudy
4:15 AM 32.0 °F - 30.2 °F 93% 30.32 in 10.0 mi Calm Calm - N/A   Mostly Cloudy
4:36 AM 32.0 °F - 32.0 °F 100% 30.32 in 10.0 mi Calm Calm - N/A   Mostly Cloudy
4:57 AM 32.0 °F - 30.2 °F 93% 30.33 in 10.0 mi Calm Calm - N/A   Overcast
5:18 AM 32.0 °F - 32.0 °F 100% 30.34 in 10.0 mi Calm Calm - N/A   Overcast
5:42 AM 32.0 °F 28.7 °F 30.2 °F 93% 30.34 in 10.0 mi NW 3.5 mph - N/A   Overcast
6:03 AM 32.0 °F 28.7 °F 30.2 °F 93% 30.35 in 10.0 mi NW 3.5 mph - N/A   Mostly Cloudy
6:24 AM 32.0 °F 28.7 °F 30.2 °F 93% 30.36 in 10.0 mi NW 3.5 mph - N/A   Clear
6:45 AM 32.0 °F - 30.2 °F 93% 30.37 in 10.0 mi Calm Calm - N/A   Clear
7:06 AM 32.0 °F - 30.2 °F 93% 30.38 in 10.0 mi Calm Calm - N/A   Clear
7:27 AM 32.0 °F - 30.2 °F 93% 30.39 in 10.0 mi Calm Calm - N/A   Clear
7:48 AM 32.0 °F - 30.2 °F 93% 30.39 in 10.0 mi Calm Calm - N/A   Clear
8:09 AM 32.0 °F - 32.0 °F 100% 30.38 in 10.0 mi Calm Calm - N/A   Clear
8:30 AM 33.8 °F - 32.0 °F 93% 30.39 in 10.0 mi Calm Calm - N/A   Clear
8:51 AM 35.6 °F - 32.0 °F 87% 30.41 in 10.0 mi Calm Calm - N/A   Clear
9:12 AM 37.4 °F - 32.0 °F 81% 30.42 in 10.0 mi Calm Calm - N/A   Clear
9:57 AM 41.0 °F 38.0 °F 30.2 °F 65% 30.43 in 10.0 mi North 4.6 mph - N/A   Clear
10:18 AM 41.0 °F 39.0 °F 28.4 °F 61% 30.43 in 10.0 mi NNW 3.5 mph - N/A   Clear
10:39 AM 42.8 °F 38.6 °F 26.6 °F 53% 30.44 in 10.0 mi NNE 6.9 mph - N/A   Clear
11:00 AM 42.8 °F 39.3 °F 26.6 °F 53% 30.43 in 10.0 mi North 5.8 mph - N/A   Clear
11:21 AM 42.8 °F 39.3 °F 26.6 °F 53% 30.43 in 10.0 mi North 5.8 mph - N/A   Clear
11:42 AM 42.8 °F 39.3 °F 26.6 °F 53% 30.42 in 10.0 mi NNW 5.8 mph - N/A   Clear
12:03 PM 44.6 °F 41.4 °F 28.4 °F 53% 30.42 in 10.0 mi WNW 5.8 mph - N/A   Clear
12:24 PM 42.8 °F 40.1 °F 26.6 °F 53% 30.41 in 10.0 mi East 4.6 mph - N/A   Clear
12:45 PM 44.6 °F - 26.6 °F 49% 30.40 in 10.0 mi Calm Calm - N/A   Clear
1:48 PM 44.6 °F 43.1 °F 26.6 °F 49% 30.40 in 10.0 mi ESE 3.5 mph - N/A   Clear
2:09 PM 44.6 °F - 26.6 °F 49% 30.39 in 10.0 mi Calm Calm - N/A   Clear
2:54 PM 44.6 °F 43.1 °F 26.6 °F 49% 30.39 in 10.0 mi North 3.5 mph - N/A   Clear
3:15 PM 44.6 °F - 26.6 °F 49% 30.39 in 10.0 mi Calm Calm - N/A   Clear
3:36 PM 42.8 °F 41.1 °F 26.6 °F 53% 30.40 in 10.0 mi ENE 3.5 mph - N/A   Clear
3:57 PM 42.8 °F - 28.4 °F 57% 30.40 in 10.0 mi Calm Calm - N/A   Clear
4:18 PM 41.0 °F - 28.4 °F 61% 30.40 in 10.0 mi Calm Calm - N/A   Clear
4:39 PM 41.0 °F 39.0 °F 28.4 °F 61% 30.40 in 10.0 mi North 3.5 mph - N/A   Clear
5:00 PM 41.0 °F 39.0 °F 26.6 °F 57% 30.41 in 10.0 mi North 3.5 mph - N/A   Clear
5:21 PM 41.0 °F 38.0 °F 26.6 °F 57% 30.40 in 10.0 mi NNE 4.6 mph - N/A   Clear
5:42 PM 41.0 °F 38.0 °F 28.4 °F 61% 30.41 in 10.0 mi NNE 4.6 mph - N/A   Clear
6:03 PM 41.0 °F 38.0 °F 28.4 °F 61% 30.40 in 10.0 mi North 4.6 mph - N/A   Clear
6:24 PM 39.2 °F 37.0 °F 28.4 °F 65% 30.41 in 10.0 mi NNE 3.5 mph - N/A   Clear
6:45 PM 39.2 °F - 28.4 °F 65% 30.42 in 10.0 mi Calm Calm - N/A   Clear
7:06 PM 39.2 °F 37.0 °F 28.4 °F 65% 30.42 in 10.0 mi North 3.5 mph - N/A   Clear
7:30 PM 39.2 °F 35.9 °F 28.4 °F 65% 30.43 in 10.0 mi North 4.6 mph - N/A   Clear
7:51 PM 37.4 °F 34.9 °F 28.4 °F 70% 30.45 in 10.0 mi North 3.5 mph - N/A   Clear
8:33 PM 37.4 °F 34.9 °F 28.4 °F 70% 30.44 in 10.0 mi North 3.5 mph - N/A   Clear
8:54 PM 37.4 °F 34.9 °F 28.4 °F 70% 30.43 in 10.0 mi North 3.5 mph - N/A   Clear
9:15 PM 37.4 °F 32.8 °F 28.4 °F 70% 30.44 in 10.0 mi North 5.8 mph - N/A   Clear
9:36 PM 37.4 °F - 28.4 °F 70% 30.45 in 10.0 mi Calm Calm - N/A   Clear
9:57 PM 37.4 °F - 28.4 °F 70% 30.45 in 10.0 mi Calm Calm - N/A   Clear
10:18 PM 37.4 °F 34.9 °F 28.4 °F 70% 30.45 in 10.0 mi North 3.5 mph - N/A   Clear
10:39 PM 37.4 °F 34.9 °F 28.4 °F 70% 30.45 in 10.0 mi North 3.5 mph - N/A   Clear
11:00 PM 35.6 °F - 28.4 °F 75% 30.45 in 10.0 mi Calm Calm - N/A   Clear
11:21 PM 33.8 °F - 30.2 °F 87% 30.44 in 10.0 mi Calm Calm - N/A   Clear